Hlavní strana
METAR-TAF:

METAR-TAF

Letiště :

Cordele, Georgie, Spojené státy americké

zeměpisná šířka: 31-59-20N, zeměpisná délka: 083-46-26W, výška: 94 m

Aktuální stav počasí

Zpráva byla vytvořena před 33 minutami, v 07:55 UTC
Východní vítr 5 kt
Teplota 12°C
Vlhkost vzduchu 67%
Tlak 1025 hPa
Viditelnost: 16.1 km
Zataženo ve výšce 6000 ft

METAR: KCKF 080755Z AUTO 10005KT 10SM OVC060 12/06 A3028 RMK AO2 T01160064

Čas: 03:28 (08:28 UTC)


TAF: chybějící

Stav a předpovědi počasí z více než 4 000 letišť (zprávy METAR a TAF).

Červené a žluté tečky na mapě představují dostupné meteorologické stanice.

Když kurzor umístíte na tečku, zobrazí se název stanice.

Pak kliknutím zobrazíte stav a předpověď počasí.

Chcete-li změnit mapu, kliknutím na zelené tlačítko se znaménkem +mapu přiblížíte, kliknutím na zelené tlačítko se znaménkem – mapu oddálíte a kliknutím na zelené šipky přejdete na sousední mapy.


METAR-TAF: